Weather History for McComb, MS

Change the Weather History Date:

Saturday, May 25, 2013

  Actual Average Record
Temperature  
Mean Temperature 73 °F -  
Max Temperature 84 °F 85 °F 93 °F (2000)
Min Temperature 62 °F 63 °F 47 °F (1979)
Cooling Degree Days 8    
Growing Degree Days 23 (Base 50)    
Moisture  
Dew Point 56 °F    
Average Humidity 59    
Maximum Humidity 84    
Minimum Humidity 42    
Precipitation  
Precipitation 0.00 in - - ()
Sea Level Pressure  
Sea Level Pressure 30.18 in    
Wind  
Wind Speed 2 mph (ENE)    
Max Wind Speed 8 mph    
Max Gust Speed -    
Visibility 10 miles    
Events      
Averages and records for this station are not official NWS values.
T = Trace of Precipitation, MM = Missing Value Source: NWS Daily Summary

Daily Weather History Graph

Daily Weather History Graph

Search for Another Location

Airport:

Trip Planner

Search our weather history database for the weather conditions in past years. The results will help you decide how hot, cold, wet, or windy it might be!

Date:

Astronomy

May. 25, 2013 Rise Set
Actual Time 6:00 AM CDT 7:57 PM CDT
Civil Twilight 5:33 AM CDT 8:24 PM CDT
Nautical Twilight 5:00 AM CDT 8:57 PM CDT
Astronomical Twilight 4:25 AM CDT 9:32 PM CDT
Moon 8:46 PM CDT (5/25) 6:26 AM CDT (5/25)
Length of Visible Light 14h 50m
Length of Day
13h 56m
Full, 100% of the Moon is Illuminated
May 25
Full
May 31
Last Quarter
Jun 8
New
Jun 16
First Quarter
Jun 23
Full

Hourly Weather History & Observations

Time (CDT) Temp. Heat Index Dew Point Humidity Pressure Visibility Wind Dir Wind Speed Gust Speed Precip Events Conditions
12:53 AM 69.1 °F - 60.1 °F 73% 30.16 in 10.0 mi Calm Calm - N/A   Clear
1:53 AM 66.9 °F - 57.9 °F 73% 30.16 in 10.0 mi Calm Calm - N/A   Clear
2:53 AM 66.0 °F - 55.9 °F 70% 30.15 in 10.0 mi ENE 3.5 mph - N/A   Clear
3:53 AM 64.0 °F - 54.0 °F 70% 30.17 in 10.0 mi ENE 3.5 mph - N/A   Clear
4:53 AM 63.0 °F - 53.1 °F 70% 30.18 in 10.0 mi NE 3.5 mph - N/A   Clear
5:53 AM 62.1 °F - 52.0 °F 70% 30.20 in 10.0 mi ENE 3.5 mph - N/A   Clear
6:53 AM 63.0 °F - 52.0 °F 67% 30.22 in 10.0 mi ENE 3.5 mph - N/A   Clear
7:53 AM 64.9 °F - 52.0 °F 63% 30.24 in 10.0 mi East 4.6 mph - N/A   Clear
8:53 AM 69.1 °F - 51.1 °F 53% 30.25 in 10.0 mi Variable 5.8 mph - N/A   Clear
9:53 AM 73.0 °F - 52.0 °F 48% 30.25 in 10.0 mi ESE 8.1 mph - N/A   Clear
10:53 AM 75.9 °F - 54.0 °F 46% 30.24 in 10.0 mi Variable 3.5 mph - N/A   Clear
11:53 AM 78.1 °F - 54.0 °F 43% 30.23 in 10.0 mi East 5.8 mph - N/A   Clear
12:53 PM 80.1 °F 80.6 °F 57.9 °F 47% 30.21 in 10.0 mi Variable 4.6 mph - N/A   Clear
1:53 PM 81.0 °F 81.3 °F 59.0 °F 47% 30.19 in 10.0 mi Variable 3.5 mph - N/A   Clear
2:53 PM 82.0 °F 82.1 °F 59.0 °F 45% 30.18 in 10.0 mi SSE 4.6 mph - N/A   Clear
3:53 PM 82.9 °F 83.3 °F 61.0 °F 47% 30.17 in 10.0 mi Calm Calm - N/A   Clear
4:53 PM 84.0 °F 83.8 °F 59.0 °F 43% 30.15 in 10.0 mi Calm Calm - N/A   Clear
5:53 PM 82.9 °F 82.6 °F 57.9 °F 42% 30.15 in 10.0 mi ENE 4.6 mph - N/A   Clear
6:53 PM 79.0 °F - 59.0 °F 50% 30.14 in 10.0 mi Calm Calm - N/A   Clear
7:53 PM 75.9 °F - 59.0 °F 56% 30.14 in 10.0 mi NE 3.5 mph - N/A   Clear
8:53 PM 73.9 °F - 59.0 °F 59% 30.15 in 10.0 mi Calm Calm - N/A   Clear
9:53 PM 71.1 °F - 57.9 °F 63% 30.16 in 10.0 mi Calm Calm - N/A   Clear
10:53 PM 66.0 °F - 60.1 °F 81% 30.16 in 10.0 mi Calm Calm - N/A   Clear
11:53 PM 64.0 °F - 59.0 °F 84% 30.16 in 10.0 mi Calm Calm - N/A   Clear